Location: Twentynine Palms Airport
(34.1316°N, 115.9458°W)
Time: 13:15:52
(UTC-07:00)

Oscar 19 - Visible Passes

Search period start: 30 May 2016 00:00
Search period end: 09 June 2016 00:00
Orbit: 774 x 790 km, 98.5° (Epoch: 30 May)

Date Brightness Start Highest point End Pass type
(mag) Time Alt. Az. Time Alt. Az. Time Alt. Az.
30 May 12.2 01:29:02 10° NE 01:32:19 27° ENE 01:32:19 27° ENE visible
30 May 11.8 03:08:27 10° NNW 03:12:41 27° WNW 03:12:53 27° WNW visible
31 May 13.1 00:58:53 10° ENE 01:00:10 13° ENE 01:00:10 13° ENE visible
31 May 11.0 02:36:06 10° N 02:40:44 54° NW 02:40:44 54° NW visible
01 Jun 11.0 02:04:15 10° NNE 02:08:35 59° NE 02:08:35 59° NE visible
01 Jun 12.7 03:46:11 10° NW 03:48:03 12° WNW 03:49:09 11° WNW visible
02 Jun 12.1 01:32:55 10° NE 01:36:26 30° ENE 01:36:26 30° ENE visible
02 Jun 12.0 03:12:33 10° NNW 03:16:38 24° WNW 03:17:00 24° WNW visible
03 Jun 12.9 01:02:33 10° ENE 01:04:17 14° ENE 01:04:17 14° ENE visible
03 Jun 11.0 02:40:07 10° N 02:44:51 50° WNW 02:44:51 50° WNW visible
04 Jun 10.9 02:08:13 10° NNE 02:12:42 66° NE 02:12:42 66° NE visible
04 Jun 12.8 03:50:46 10° NW 03:51:59 11° WNW 03:53:10 10° WNW visible
05 Jun 11.9 01:36:49 10° NNE 01:40:33 33° ENE 01:40:33 33° ENE visible
05 Jun 12.1 03:16:40 10° NNW 03:20:35 22° WNW 03:21:06 22° WNW visible
06 Jun 12.8 01:06:15 10° NE 01:08:23 16° ENE 01:08:23 16° ENE visible
06 Jun 11.1 02:44:09 10° N 02:48:57 45° WNW 02:48:57 45° WNW visible
07 Jun 10.8 02:12:11 10° NNE 02:16:47 71° NNE 02:16:47 71° NNE visible
08 Jun 11.7 01:40:43 10° NNE 01:44:38 36° ENE 01:44:38 36° ENE visible
08 Jun 12.2 03:20:48 10° NNW 03:24:31 21° WNW 03:25:11 20° WNW visible
